Regional Weather Roundup
Issued by NWS Grand Forks, ND

Home | Current Version | Previous Version | Graphics & Text | Print | Product List | Glossary On
Versions: 1 2 3 4 5 6 7 8 9 10 11 12 13 14 15 16 17 18 19 20 21 22 23 24 25 26 27 28 29 30 31 32 33 34 35 36 37 38 39 40 41 42 43 44 45 46 47 48 49 50
000
ASUS43 KFGF 251431
RWRFGF
PRAIRIE TO PINES  WEATHER ROUNDUP
NATIONAL WEATHER SERVICE EASTERN NORTH DAKOTA/GRAND FORKS ND
800 AM CST TUE NOV 25 2014

 **SATELLITE DATA USED TO AUGMENT SKY COVER AT AUTOMATED STATIONS**
 *****  WEATHER ACROSS EASTERN NORTH DAKOTA  *****

CITY           SKY/WX    TMP DP  RH WIND       PRES   REMARKS
GRAND FORKS    MOCLDY    12   7  79 CALM      29.95S
GRAND FRKS AFB CLOUDY    13  10  88 S2        29.94S
GRAND FRKS NWS   N/A     12 N/A N/A S1          N/A
DEVILS LAKE    CLOUDY    21  12  68 CALM      29.87F
FARGO          CLOUDY    19  11  70 SE5       29.95S WCI  12
WAHPETON ARPT  CLOUDY    19  12  73 SE6       29.97S WCI  11
$$

 ***** WEATHER ACROSS CENTRAL AND WESTERN NORTH DAKOTA  *****

CITY           SKY/WX    TMP DP  RH WIND       PRES   REMARKS
BISMARCK       CLOUDY    22  20  92 E7        29.84F WCI  13
MINOT          CLOUDY    25  21  85 E6        29.81F WCI  18
JAMESTOWN      CLOUDY    26  20  77 CALM      29.88F
MINOT AFB      CLOUDY    25  24  98 SE7       29.81F WCI  17
GARRISON         N/A     28  24  85 S9        29.81F WCI  19
WILLISTON      LGT SNOW  27  25  92 S6        29.72F FOG     WCI  20
DICKINSON      LGT SNOW  28  25  88 S9        29.74F FOG     WCI  19
HETTINGER      LGT SNOW  28  25  88 SW9       29.80F FOG     WCI  19
$$

 *****  OTHER AIRPORT OBSERVATIONS IN OUR AREA  *****

CITY           SKY/WX    TMP DP  RH WIND       PRES   REMARKS
WALHALLA         N/A     10  10 100 NW3       29.96R
GRAFTON AIRPOR CLOUDY    16  10  79 NE6       29.95F WCI   7
VALLEY CITY AR CLOUDY    23  23 100 CALM      29.91S
CANDO          CLOUDY    19  18  93 CALM      29.89S
CAVALIER APRT  CLOUDY    14   9  79 CALM      29.95F
GWINNER        CLOUDY    25  18  74 SW9       29.95R WCI  15
SHEYENNE NWR     N/A     22  15  74 SW3       29.95S
ROLLA          CLOUDY    18  18 100 SE7       29.86S WCI   8
 ***** THE ABOVE OBSERVATIONS ARE NON NWS ARE NOT QUALITY
       CONTROLLED AND MAY MIS-REPORT RAIN FOR SNOW...
$$

  *****  WEATHER ACROSS NORTHERN MINNESOTA  *****

CITY           SKY/WX    TMP DP  RH WIND       PRES   REMARKS
FLAG ISLAND    CLOUDY     3  -2  78 CALM      29.93R
WARROAD        CLOUDY     7   1  78 CALM      29.93R
ROSEAU         MOCLDY     5   0  78 S5        29.93R WCI  -4
HALLOCK        CLEAR      5   1  85 CALM      29.95S
THF RVR FALLS  CLEAR     10   7  85 S3        29.94S
BAUDETTE       PTCLDY    -2  -7  79 CALM      29.92S
WASKISH        PTCLDY     0  -4  85 CALM      29.94R
CROOKSTON      CLEAR     10   7  85 S6        29.98R WCI   1
STEPHEN NDAWN    N/A     14  10  85 N2          N/A
GREENBUSH NDAW   N/A      7   3  85 SW3         N/A
$$
  *****  WEATHER ACROSS CENTRAL AND WEST MINNESOTA  *****

CITY           SKY/WX    TMP DP  RH WIND       PRES   REMARKS
FOSSTON        CLOUDY    10   7  85 S6        29.95R WCI   1
BEMIDJI        CLOUDY     9   4  82 CALM      29.93R
PARK RAPIDS    CLOUDY    10   6  84 CALM      29.93S
ELBOW LAKE       N/A     14   8  78 S7        29.98R WCI   4
WADENA         CLOUDY    12   7  79 CALM      29.95R
DETROIT LAKES  CLOUDY    18  10  73 CALM      29.95R
MOORHEAD       CLOUDY    18  16  93 S6        29.97S WCI   9
FERGUS FALLS   CLOUDY    16   7  67 S6        30.00R WCI   7
MORRIS MN        N/A     14   9  79 S7        29.98R WCI   4
STAPLES        CLOUDY    10   7  85 CALM      29.96R
$$
  *****  WEATHER ELSEWHERE ACROSS MINNESOTA  *****

CITY           SKY/WX    TMP DP  RH WIND       PRES   REMARKS
DULUTH         PTCLDY     9   4  80 NW9       29.91R WCI  -4
INTRNTL FALLS  MOCLDY    -2  -7  79 SW5       29.92S WCI -12
ELY            LGT SNOW   3   0  85 CALM      29.91R
CLOQUET        CLEAR      9   5  85 NW8       29.94R WCI  -4
WHEATON        CLOUDY    18  10  73 SE6       29.99S WCI   9
BRAINERD       CLOUDY     6   4  91 S3        29.97S
HIBBING        PTCLDY     2  -3  80 CALM      29.93S
ALEXANDRIA     CLOUDY    13   6  74 S5        29.96S WCI   5
SAINT CLOUD    CLOUDY    10   4  76 CALM      30.01R
MINNEAPOLIS    CLEAR     11   7  84 W5        30.04R WCI   3
$$

  *****  WEATHER ACROSS SOUTH DAKOTA  *****

CITY           SKY/WX    TMP DP  RH WIND       PRES   REMARKS
SIOUX FALLS    MOCLDY    16  10  77 CALM      30.01F
BROOKINGS      NOT AVBL
WATERTOWN      CLOUDY    18  11  74 S5        29.94S WCI  11
HURON          CLOUDY    23  17  78 S5        29.97F WCI  17
SISSETON         N/A     25  14  63 W8        29.95R WCI  16
ABERDEEN       CLOUDY    24  19  81 S6        29.95S WCI  17
MITCHELL       MOCLDY    19  15  84 S7        30.00F WCI  10
PIERRE         CLOUDY    24  21  88 CALM      29.92F
MOBRIDGE       CLOUDY    25  22  88 SE3       29.87F
RAPID CITY     CLOUDY    28  21  75 E9        29.83F WCI  19
$$

  *****  SOME WEATHER IN NEARBY STATES *****

CITY           SKY/WX    TMP DP  RH WIND       PRES   REMARKS
GLASGOW MT     CLOUDY    33  31  92 W8        29.69F
GREAT FALLS MT LGT RAIN  37  30  75 N8        29.87R
CHEYENNE WY    CLOUDY    29  13  51 W32G48    29.89F WCI  13
SCOTTSBLUFF NE CLOUDY    24  19  81 SE7       29.93F WCI  16
OMAHA NE       PTCLDY    19  11  70 SE3       30.15S
DES MOINES IA  CLEAR     19  11  70 NW5       30.13R WCI  12
DAVENPORT IA   CLOUDY    16  10  77 W14       30.10R WCI   2
CHICAGO IL     CLOUDY    21  16  81 W15       30.03R WCI   8
EAU CLAIRE WI  CLOUDY    16   9  74 W8        30.00R WCI   5
LA CROSSE WI   CLOUDY    20  13  74 W9        30.04R WCI   9
$$

  *****  SOME NATIONAL WEATHER *****

CITY           SKY/WX    TMP DP  RH WIND       PRES   REMARKS
LA GUARDIA NY  CLOUDY    58  35  42 W15       29.95R
RALEIGH NC     CLOUDY    63  57  82 SW10      30.06R
ATLANTA GA     CLOUDY    49  31  49 NW12      30.09S
NEW ORLEANS LA CLOUDY    54  38  54 N14       30.17R
OKLAHOMA CITY  PTCLDY    32  24  72 NW9       30.28R WCI  24
ALBUQUERQUE NM PTCLDY    18  10  71 SE5       30.43S WCI  11
SALT LAKE CITY CLOUDY    35  20  54 SE6       30.35S
LOS ANGELES CA CLEAR     56  18  22 CALM      30.36R
BOISE ID       CLOUDY    40  36  86 SE7       30.25S
SEATTLE WA     LGT RAIN  52  50  93 N6        30.17R FOG
$$

*** WEATHER ACROSS MANITOBA...SASKATCHEWAN AND ONTARIO ***
                ***ONTARIO***

CITY           SKY/WX    TMP DP  RH WIND       PRES   REMARKS
GERALDTON      FLURRIES   9   5  85 NW7       29.81R WCI  -3
THUNDER BAY    PTCLDY     5   1  85 W8        29.94R WCI  -8
SIOUX LOOKOUT  CRYSTALS   3   0  85 W3        29.87R
TORONTO        CLOUDY    36  28  75 SW23G35   29.84R
BIG TROUT LK   CLEAR     -6  -9  84 NW9       29.83R WCI -22
PICKLE LAKE    FLURRIES  -2  -9  71 W7        29.81S WCI -16
DRYDEN         CLOUDY     1   0  92 SW6       29.88  WCI -10
KENORA         MOCLDY     5   0  78 W6        29.90R WCI  -6
$$
                *** MANITOBA***

CITY           SKY/WX    TMP DP  RH WIND       PRES   REMARKS
BRANDON        FLURRIES  12   9  85 E13       29.91R WCI  -3
DAUPHIN        LGT SNOW  10   7  85 NE7       29.97R WCI   0
ISLAND LAKE    PTCLDY   -13 -22  64 N8        29.96R WCI -30
PILOT MOUND      N/A     14  10  85 SE3         N/A
THE PAS        PTCLDY   -11 -15  84 NE3       30.06R
THOMPSON       CLEAR    -26 -33  68 NW3       30.03R
WINNIPEG       CLOUDY     9   3  78 N12       29.97R WCI  -6
LYNN LAKE      CLEAR    -27 -33  75 NW7       30.02R WCI -46
CHURCHILL      PTCLDY   -15 -22  70 NW22G28   29.93S BLWGSNOWWCI -42
GILLAM         CLEAR    -24 -31  69 NW14      29.97R WCI -49
$$
                ***SASKATCHEWAN***

CITY           SKY/WX    TMP DP  RH WIND       PRES   REMARKS
ESTEVAN        LGT SNOW N/A N/A N/A E12         N/A
KINDERSLEY     LGT SNOW  21  19  93 NE13      29.73R WCI   9
LLOYDMINSTER   LGT SNOW  10   9  92 NE14      29.87R DRFTSNOWWCI  -5
PRINCE ALBERT  FLURRIES   7   3  85 E12       29.95R WCI  -9
REGINA         SNOWSHWR  23  21  93 E13       29.71S WCI  11
YORKTON        LGT SNOW  14  12  92 E9        29.85R WCI   2
N. BATTLEFORD  LGT SNOW  14  10  85 NE17G23   29.87R WCI  -3
LA RONGE       PTCLDY   -11 -15  84 N7        30.06R WCI -26
SASKATOON      FLURRIES  12  10  92 NE17      29.86R WCI  -5
SWIFT CURRENT  CLOUDY    27  23  86 W8        29.65R WCI  18
$$
NOTE: THESE ARE AUTOMATED STATIONS WITH LIMITED QUALITY CONTROL
      "FAIR" INDICATES FEW OR NO CLOUDS BELOW 12,000 FEET WITH NO
      SIGNIFICANT WEATHER AND/OR OBSTRUCTIONS TO VISIBILITY.
      SKY/WX - SKY CONDITION AND SIGNIFICANT WEATHER.
      TMP - AIR TEMPERATURE.    DP   - DEWPOINT TEMPERATURE.
      RH  - RELATIVE HUMIDITY.  PRES - PRESSURE.
      HX  - HEAT INDEX.         WCI  - WIND CHILL INDEX.
$


USA.gov is the U.S. government's official web portal to all federal, state and local government web resources and services.